When you browse on this site, cookies collect data to enhance your experience and personalize the content and advertising you see.
Visit our Privacy Policy to learn more. By continuing to use the site, you agree to this use of cookies and data.
  • In Latvia
  • List of Countries
  • For 7 days
  • Water Temperature
  • Satellite Maps
  • Weather Map
  • Weather Widgets
  • user-avatar
    Login

    Hourly Weather Ondjiwa

    Today, 22 May, Wednesday

    Time Temperature Precipitation Wind Pressure Humidity
    00:00 +19°C° 0 mm 2 mps 667 mmHg 34%
    01:00 +18°C° 0 mm 2 mps 667 mmHg 36%
    02:00 +18°C° 0 mm 2 mps 667 mmHg 38%
    03:00 +17°C° 0 mm 2 mps 666 mmHg 40%
    04:00 +16°C° 0 mm 1 mps 666 mmHg 42%
    05:00 +16°C° 0 mm 2 mps 667 mmHg 43%
    06:00 +17°C° 0 mm 2 mps 667 mmHg 43%
    07:00 +17°C° 0 mm 2 mps 668 mmHg 41%
    08:00 +21°C° 0 mm 2 mps 669 mmHg 36%
    09:00 +25°C° 0 mm 2 mps 669 mmHg 31%
    10:00 +29°C° 0 mm 3 mps 670 mmHg 25%
    11:00 +30°C° 0 mm 3 mps 670 mmHg 22%
    12:00 +32°C° 0 mm 2 mps 669 mmHg 20%
    13:00 +34°C° 0 mm 2 mps 669 mmHg 17%
    14:00 +34°C° 0 mm 2 mps 668 mmHg 17%
    15:00 +34°C° 0 mm 2 mps 668 mmHg 16%
    16:00 +33°C° 0 mm 1 mps 667 mmHg 16%
    17:00 +31°C° 0 mm 1 mps 667 mmHg 19%
    18:00 +28°C° 0 mm 1 mps 667 mmHg 22%
    19:00 +26°C° 0 mm 1 mps 667 mmHg 25%
    20:00 +26°C° 0 mm 1 mps 667 mmHg 27%
    21:00 +26°C° 0 mm 2 mps 668 mmHg 29%
    22:00 +25°C° 0 mm 2 mps 668 mmHg 31%
    23:00 +25°C° 0 mm 2 mps 668 mmHg 32%

    Tomorrow, 23 May, Thursday

    Time Temperature Precipitation Wind Pressure Humidity
    00:00 +24°C° 0 mm 2 mps 668 mmHg 32%
    01:00 +24°C° 0 mm 2 mps 668 mmHg 33%
    02:00 +21°C° 0 mm 2 mps 668 mmHg 35%
    03:00 +20°C° 0 mm 2 mps 667 mmHg 36%
    04:00 +19°C° 0 mm 2 mps 667 mmHg 38%
    05:00 +20°C° 0 mm 1 mps 667 mmHg 39%
    06:00 +20°C° 0 mm 1 mps 667 mmHg 40%
    07:00 +19°C° 0 mm 1 mps 668 mmHg 41%
    08:00 +22°C° 0 mm 1 mps 668 mmHg 36%
    09:00 +25°C° 0 mm 1 mps 669 mmHg 31%
    10:00 +27°C° 0 mm 1 mps 670 mmHg 26%
    11:00 +29°C° 0 mm 1 mps 670 mmHg 24%
    12:00 +30°C° 0 mm 1 mps 669 mmHg 23%
    13:00 +31°C° 0 mm 2 mps 669 mmHg 21%
    14:00 +32°C° 0 mm 2 mps 669 mmHg 20%
    15:00 +32°C° 0 mm 2 mps 668 mmHg 20%
    16:00 +32°C° 0 mm 2 mps 668 mmHg 19%
    17:00 +30°C° 0 mm 2 mps 668 mmHg 22%
    18:00 +28°C° 0 mm 1 mps 668 mmHg 24%
    19:00 +26°C° 0 mm 1 mps 668 mmHg 27%
    20:00 +25°C° 0 mm 1 mps 668 mmHg 28%
    21:00 +24°C° 0 mm 2 mps 668 mmHg 30%
    22:00 +23°C° 0 mm 2 mps 668 mmHg 32%
    23:00 +23°C° 0 mm 2 mps 668 mmHg 33%

    Day after tomorrow, 24 May, Friday

    Time Temperature Precipitation Wind Pressure Humidity
    00:00 +23°C° 0 mm 2 mps 668 mmHg 34%
    01:00 +24°C° 0 mm 2 mps 668 mmHg 35%
    02:00 +23°C° 0 mm 2 mps 668 mmHg 35%
    03:00 +23°C° 0 mm 2 mps 668 mmHg 36%
    04:00 +23°C° 0 mm 1 mps 668 mmHg 36%
    05:00 +23°C° 0 mm 2 mps 668 mmHg 37%
    06:00 +23°C° 0 mm 2 mps 669 mmHg 38%
    07:00 +21°C° 0 mm 2 mps 669 mmHg 38%
    08:00 +24°C° 0 mm 3 mps 670 mmHg 35%
    09:00 +26°C° 0 mm 3 mps 670 mmHg 31%
    10:00 +28°C° 0 mm 3 mps 671 mmHg 27%
    11:00 +30°C° 0 mm 3 mps 671 mmHg 25%
    12:00 +31°C° 0 mm 3 mps 670 mmHg 22%
    13:00 +34°C° 0 mm 3 mps 670 mmHg 19%
    14:00 +34°C° 0 mm 3 mps 670 mmHg 19%
    15:00 +33°C° 0 mm 3 mps 669 mmHg 20%
    16:00 +33°C° 0 mm 3 mps 669 mmHg 21%
    17:00 +30°C° 0 mm 3 mps 669 mmHg 23%
    18:00 +27°C° 0 mm 3 mps 668 mmHg 26%
    19:00 +25°C° 0 mm 2 mps 668 mmHg 29%
    20:00 +24°C° 0 mm 3 mps 669 mmHg 30%
    21:00 +24°C° 0 mm 3 mps 669 mmHg 31%
    22:00 +22°C° 0 mm 3 mps 669 mmHg 31%
    23:00 +22°C° 0 mm 4 mps 669 mmHg 30%

    25 May, Saturday

    Time Temperature Precipitation Wind Pressure Humidity
    00:00 +23°C° 0 mm 4 mps 669 mmHg 28%
    01:00 +23°C° 0 mm 4 mps 670 mmHg 27%
    02:00 +22°C° 0 mm 4 mps 669 mmHg 28%
    03:00 +21°C° 0 mm 4 mps 669 mmHg 29%
    04:00 +20°C° 0 mm 3 mps 669 mmHg 30%
    05:00 +20°C° 0 mm 3 mps 669 mmHg 30%
    06:00 +19°C° 0 mm 3 mps 670 mmHg 30%
    07:00 +19°C° 0 mm 3 mps 670 mmHg 30%
    08:00 +22°C° 0 mm 4 mps 671 mmHg 26%
    09:00 +26°C° 0 mm 5 mps 671 mmHg 21%
    10:00 +29°C° 0 mm 7 mps 672 mmHg 17%
    11:00 +32°C° 0 mm 6 mps 672 mmHg 16%
    12:00 +33°C° 0 mm 5 mps 671 mmHg 15%
    13:00 +34°C° 0 mm 4 mps 670 mmHg 14%
    14:00 +34°C° 0 mm 4 mps 670 mmHg 14%
    15:00 +34°C° 0 mm 3 mps 669 mmHg 14%
    16:00 +33°C° 0 mm 3 mps 669 mmHg 13%
    17:00 +30°C° 0 mm 3 mps 669 mmHg 17%
    18:00 +27°C° 0 mm 2 mps 669 mmHg 20%
    19:00 +24°C° 0 mm 2 mps 668 mmHg 23%
    20:00 +23°C° 0 mm 2 mps 668 mmHg 24%
    21:00 +21°C° 0 mm 2 mps 669 mmHg 26%
    22:00 +20°C° 0 mm 3 mps 669 mmHg 28%
    23:00 +19°C° 0 mm 3 mps 668 mmHg 30%

    26 May, Sunday

    Time Temperature Precipitation Wind Pressure Humidity
    00:00 +19°C° 0 mm 3 mps 668 mmHg 31%
    01:00 +18°C° 0 mm 3 mps 668 mmHg 32%
    02:00 +18°C° 0 mm 3 mps 668 mmHg 34%
    03:00 +17°C° 0 mm 3 mps 668 mmHg 36%
    04:00 +17°C° 0 mm 3 mps 668 mmHg 38%
    05:00 +16°C° 0 mm 3 mps 668 mmHg 39%
    06:00 +16°C° 0 mm 3 mps 669 mmHg 40%
    07:00 +16°C° 0 mm 3 mps 669 mmHg 41%
    08:00 +20°C° 0 mm 4 mps 670 mmHg 35%
    09:00 +23°C° 0 mm 5 mps 671 mmHg 30%
    10:00 +28°C° 0 mm 6 mps 672 mmHg 24%
    11:00 +29°C° 0 mm 5 mps 671 mmHg 21%
    12:00 +32°C° 0 mm 4 mps 671 mmHg 19%
    13:00 +33°C° 0 mm 3 mps 670 mmHg 16%
    14:00 +33°C° 0 mm 3 mps 670 mmHg 16%
    15:00 +33°C° 0 mm 3 mps 669 mmHg 16%
    16:00 +32°C° 0 mm 2 mps 669 mmHg 16%
    17:00 +29°C° 0 mm 2 mps 669 mmHg 20%
    18:00 +26°C° 0 mm 2 mps 668 mmHg 23%
    19:00 +23°C° 0 mm 2 mps 668 mmHg 27%
    20:00 +21°C° 0 mm 2 mps 668 mmHg 29%
    21:00 +20°C° 0 mm 2 mps 668 mmHg 31%
    22:00 +19°C° 0 mm 2 mps 668 mmHg 32%
    23:00 +19°C° 0 mm 2 mps 668 mmHg 34%

    27 May, Monday

    Time Temperature Precipitation Wind Pressure Humidity
    00:00 +18°C° 0 mm 2 mps 668 mmHg 35%
    01:00 +17°C° 0 mm 2 mps 668 mmHg 36%
    02:00 +17°C° 0 mm 3 mps 668 mmHg 38%
    03:00 +17°C° 0 mm 3 mps 668 mmHg 39%
    04:00 +16°C° 0 mm 3 mps 668 mmHg 41%
    05:00 +16°C° 0 mm 3 mps 668 mmHg 43%
    06:00 +16°C° 0 mm 3 mps 669 mmHg 45%
    07:00 +16°C° 0 mm 2 mps 669 mmHg 46%
    08:00 +19°C° 0 mm 3 mps 670 mmHg 39%
    09:00 +23°C° 0 mm 4 mps 671 mmHg 32%
    10:00 +28°C° 0 mm 5 mps 671 mmHg 25%
    11:00 +29°C° 0 mm 4 mps 671 mmHg 22%
    12:00 +32°C° 0 mm 4 mps 670 mmHg 19%
    13:00 +33°C° 0 mm 3 mps 670 mmHg 15%
    14:00 +33°C° 0 mm 3 mps 669 mmHg 15%
    15:00 +33°C° 0 mm 3 mps 669 mmHg 15%
    16:00 +33°C° 0 mm 3 mps 668 mmHg 14%
    17:00 +29°C° 0 mm 3 mps 668 mmHg 18%
    18:00 +26°C° 0 mm 3 mps 668 mmHg 22%
    19:00 +23°C° 0 mm 2 mps 668 mmHg 25%
    20:00 +21°C° 0 mm 2 mps 668 mmHg 27%
    21:00 +20°C° 0 mm 2 mps 668 mmHg 29%
    22:00 +19°C° 0 mm 3 mps 668 mmHg 31%
    23:00 +18°C° 0 mm 3 mps 668 mmHg 32%
    Show more